Time,TemperatureF,DewpointF,PressureIn,WindDirection,WindDirectionDegrees,WindSpeedMPH,WindSpeedGustMPH,Humidity,HourlyPrecipIn,Conditions,Clouds,dailyrainin,SoftwareType,DateUTC
2013-10-27 00:02:00,46.1,39.0,30.09,East,84,0.0,2.0,75,0.00,,,0.00,weatherlink.com 1.10,2013-10-27 04:02:00,
2013-10-27 00:17:00,45.8,38.0,30.09,East,84,0.0,1.0,75,0.00,,,0.00,weatherlink.com 1.10,2013-10-27 04:17:00,
2013-10-27 00:32:00,45.6,39.0,30.09,East,84,0.0,0.0,78,0.00,,,0.00,weatherlink.com 1.10,2013-10-27 04:32:00,
2013-10-27 00:47:00,45.5,40.0,30.10,SE,128,4.0,5.0,80,0.00,,,0.00,weatherlink.com 1.10,2013-10-27 04:47:00,
2013-10-27 01:02:00,44.7,39.0,30.10,ESE,118,0.0,4.0,81,0.00,,,0.00,weatherlink.com 1.10,2013-10-27 05:02:00,
2013-10-27 01:17:00,44.7,39.0,30.10,East,83,1.0,3.0,81,0.00,,,0.00,weatherlink.com 1.10,2013-10-27 05:17:00,
2013-10-27 01:32:00,45.1,40.0,30.09,East,83,2.0,2.0,81,0.00,,,0.00,weatherlink.com 1.10,2013-10-27 05:32:00,
2013-10-27 01:47:00,45.2,39.0,30.09,NNW,328,0.0,3.0,79,0.00,,,0.00,weatherlink.com 1.10,2013-10-27 05:47:00,
2013-10-27 02:02:00,45.0,40.0,30.10,East,94,0.0,3.0,81,0.00,,,0.00,weatherlink.com 1.10,2013-10-27 06:02:00,
2013-10-27 02:17:00,44.9,40.0,30.09,East,94,1.0,2.0,82,0.00,,,0.00,weatherlink.com 1.10,2013-10-27 06:17:00,
2013-10-27 02:32:00,44.2,40.0,30.09,ESE,105,0.0,1.0,84,0.00,,,0.00,weatherlink.com 1.10,2013-10-27 06:32:00,
2013-10-27 02:47:00,43.4,40.0,30.09,ESE,105,0.0,2.0,86,0.00,,,0.00,weatherlink.com 1.10,2013-10-27 06:47:00,
2013-10-27 03:02:00,43.6,39.0,30.09,ESE,105,0.0,2.0,84,0.00,,,0.00,weatherlink.com 1.10,2013-10-27 07:02:00,
2013-10-27 03:17:00,43.4,39.0,30.09,ESE,105,2.0,2.0,84,0.00,,,0.00,weatherlink.com 1.10,2013-10-27 07:17:00,
2013-10-27 03:32:00,42.5,39.0,30.08,SE,129,1.0,3.0,87,0.00,,,0.00,weatherlink.com 1.10,2013-10-27 07:32:00,
2013-10-27 03:47:00,42.1,39.0,30.08,ESE,114,0.0,5.0,89,0.00,,,0.00,weatherlink.com 1.10,2013-10-27 07:47:00,
2013-10-27 04:02:00,41.5,39.0,30.07,SE,129,0.0,1.0,89,0.00,,,0.00,weatherlink.com 1.10,2013-10-27 08:02:00,
2013-10-27 04:17:00,42.2,39.0,30.07,NE,52,1.0,4.0,88,0.00,,,0.00,weatherlink.com 1.10,2013-10-27 08:17:00,
2013-10-27 04:32:00,41.8,39.0,30.07,NE,51,0.0,2.0,88,0.00,,,0.00,weatherlink.com 1.10,2013-10-27 08:32:00,
2013-10-27 04:47:00,41.6,39.0,30.08,ESE,114,2.0,3.0,89,0.00,,,0.00,weatherlink.com 1.10,2013-10-27 08:47:00,
2013-10-27 05:02:00,40.6,38.0,30.07,ESE,114,1.0,1.0,90,0.00,,,0.00,weatherlink.com 1.10,2013-10-27 09:02:00,
2013-10-27 05:17:00,39.9,38.0,30.08,ESE,110,0.0,2.0,91,0.00,,,0.00,weatherlink.com 1.10,2013-10-27 09:17:00,
2013-10-27 05:32:00,40.1,38.0,30.08,North,349,0.0,3.0,92,0.00,,,0.00,weatherlink.com 1.10,2013-10-27 09:32:00,
2013-10-27 05:47:00,40.2,38.0,30.08,ESE,116,1.0,3.0,92,0.00,,,0.00,weatherlink.com 1.10,2013-10-27 09:47:00,
2013-10-27 06:02:00,40.0,38.0,30.08,ESE,116,0.0,1.0,93,0.00,,,0.00,weatherlink.com 1.10,2013-10-27 10:02:00,
2013-10-27 06:17:00,39.7,37.0,30.08,ESE,116,0.0,2.0,91,0.00,,,0.00,weatherlink.com 1.10,2013-10-27 10:17:00,
2013-10-27 06:32:00,39.4,37.0,30.08,ESE,116,0.0,0.0,92,0.00,,,0.00,weatherlink.com 1.10,2013-10-27 10:32:00,
2013-10-27 06:47:00,39.6,38.0,30.09,ENE,62,0.0,4.0,94,0.00,,,0.00,weatherlink.com 1.10,2013-10-27 10:47:00,
2013-10-27 07:02:00,39.7,38.0,30.09,East,91,1.0,3.0,93,0.00,,,0.00,weatherlink.com 1.10,2013-10-27 11:02:00,
2013-10-27 07:17:00,39.8,38.0,30.09,ESE,120,1.0,6.0,94,0.00,,,0.00,weatherlink.com 1.10,2013-10-27 11:17:00,
2013-10-27 07:32:00,39.5,38.0,30.09,ESE,110,1.0,3.0,93,0.00,,,0.00,weatherlink.com 1.10,2013-10-27 11:32:00,
2013-10-27 07:47:00,38.9,37.0,30.10,ESE,110,0.0,0.0,94,0.00,,,0.00,weatherlink.com 1.10,2013-10-27 11:47:00,
2013-10-27 08:02:00,39.0,38.0,30.10,ESE,110,0.0,1.0,94,0.00,,,0.00,weatherlink.com 1.10,2013-10-27 12:02:00,
2013-10-27 08:17:00,39.1,38.0,30.11,ESE,110,0.0,0.0,94,0.00,,,0.00,weatherlink.com 1.10,2013-10-27 12:17:00,
2013-10-27 08:32:00,39.4,38.0,30.12,ESE,110,0.0,2.0,95,0.00,,,0.00,weatherlink.com 1.10,2013-10-27 12:32:00,
2013-10-27 08:48:00,41.1,39.0,30.12,ESE,110,2.0,3.0,93,0.00,,,0.00,weatherlink.com 1.10,2013-10-27 12:48:00,
2013-10-27 09:03:00,42.6,41.0,30.13,ESE,109,0.0,3.0,92,0.00,,,0.00,weatherlink.com 1.10,2013-10-27 13:03:00,
2013-10-27 09:18:00,44.5,42.0,30.13,ESE,109,0.0,1.0,90,0.00,,,0.00,weatherlink.com 1.10,2013-10-27 13:18:00,
2013-10-27 09:33:00,46.2,42.0,30.13,NNW,332,2.0,3.0,86,0.00,,,0.00,weatherlink.com 1.10,2013-10-27 13:33:00,
2013-10-27 09:48:00,47.6,43.0,30.14,WNW,297,1.0,2.0,85,0.00,,,0.00,weatherlink.com 1.10,2013-10-27 13:48:00,
2013-10-27 10:03:00,50.0,44.0,30.14,WNW,297,0.0,2.0,80,0.00,,,0.00,weatherlink.com 1.10,2013-10-27 14:03:00,
2013-10-27 10:18:00,51.9,45.0,30.14,WNW,297,0.0,2.0,76,0.00,,,0.00,weatherlink.com 1.10,2013-10-27 14:18:00,
2013-10-27 10:33:00,53.7,46.0,30.14,ENE,74,1.0,5.0,74,0.00,,,0.00,weatherlink.com 1.10,2013-10-27 14:33:00,
2013-10-27 10:48:00,54.8,45.0,30.14,SSE,152,2.0,4.0,69,0.00,,,0.00,weatherlink.com 1.10,2013-10-27 14:48:00,
2013-10-27 11:03:00,55.9,45.0,30.14,SSE,153,2.0,8.0,66,0.00,,,0.00,weatherlink.com 1.10,2013-10-27 15:03:00,
2013-10-27 11:18:00,56.9,45.0,30.14,South,188,0.0,5.0,64,0.00,,,0.00,weatherlink.com 1.10,2013-10-27 15:18:00,
2013-10-27 11:33:00,57.7,45.0,30.13,South,188,0.0,7.0,63,0.00,,,0.00,weatherlink.com 1.10,2013-10-27 15:33:00,
2013-10-27 11:48:00,59.4,45.0,30.14,SE,137,0.0,6.0,60,0.00,,,0.00,weatherlink.com 1.10,2013-10-27 15:48:00,
2013-10-27 12:03:00,60.3,46.0,30.14,SSE,160,2.0,5.0,60,0.00,,,0.00,weatherlink.com 1.10,2013-10-27 16:03:00,
2013-10-27 12:18:00,60.8,46.0,30.13,West,277,2.0,7.0,59,0.00,,,0.00,weatherlink.com 1.10,2013-10-27 16:18:00,
2013-10-27 12:33:00,61.1,47.0,30.13,SW,214,4.0,7.0,60,0.00,,,0.00,weatherlink.com 1.10,2013-10-27 16:33:00,
2013-10-27 12:48:00,61.6,46.0,30.13,SSW,193,5.0,7.0,58,0.00,,,0.00,weatherlink.com 1.10,2013-10-27 16:48:00,
2013-10-27 13:03:00,62.3,48.0,30.12,West,268,4.0,6.0,59,0.00,,,0.00,weatherlink.com 1.10,2013-10-27 17:03:00,
2013-10-27 13:18:00,62.2,47.0,30.12,SW,226,2.0,8.0,59,0.00,,,0.00,weatherlink.com 1.10,2013-10-27 17:18:00,
2013-10-27 13:33:00,62.9,48.0,30.11,SSE,156,0.0,5.0,58,0.00,,,0.00,weatherlink.com 1.10,2013-10-27 17:33:00,
2013-10-27 13:50:00,64.5,50.0,30.09,SSW,201,5.0,6.0,59,0.00,,,0.00,weatherlink.com 1.10,2013-10-27 17:50:00,
2013-10-27 14:04:00,65.6,49.0,30.08,South,173,6.0,6.0,56,0.00,,,0.00,weatherlink.com 1.10,2013-10-27 18:04:00,
2013-10-27 14:19:00,67.0,49.0,30.07,WNW,289,2.0,4.0,53,0.00,,,0.00,weatherlink.com 1.10,2013-10-27 18:19:00,
2013-10-27 14:34:00,67.2,49.0,30.06,WSW,239,3.0,7.0,53,0.00,,,0.00,weatherlink.com 1.10,2013-10-27 18:34:00,
2013-10-27 14:49:00,68.1,50.0,30.06,SW,221,6.0,6.0,52,0.00,,,0.00,weatherlink.com 1.10,2013-10-27 18:49:00,
2013-10-27 15:04:00,68.2,49.0,30.05,SSW,204,5.0,8.0,51,0.00,,,0.00,weatherlink.com 1.10,2013-10-27 19:04:00,
2013-10-27 15:19:00,68.8,50.0,30.05,WSW,240,4.0,10.0,51,0.00,,,0.00,weatherlink.com 1.10,2013-10-27 19:19:00,
2013-10-27 15:34:00,68.8,50.0,30.05,SW,234,3.0,8.0,52,0.00,,,0.00,weatherlink.com 1.10,2013-10-27 19:34:00,
2013-10-27 15:49:00,68.6,50.0,30.05,SW,231,5.0,11.0,52,0.00,,,0.00,weatherlink.com 1.10,2013-10-27 19:49:00,
2013-10-27 16:04:00,67.9,50.0,30.05,WSW,251,9.0,10.0,54,0.00,,,0.00,weatherlink.com 1.10,2013-10-27 20:04:00,
2013-10-27 16:19:00,67.5,50.0,30.05,SSE,168,4.0,11.0,54,0.00,,,0.00,weatherlink.com 1.10,2013-10-27 20:19:00,
2013-10-27 16:34:00,67.7,50.0,30.05,SSW,206,6.0,10.0,54,0.00,,,0.00,weatherlink.com 1.10,2013-10-27 20:34:00,
2013-10-27 16:49:00,67.7,50.0,30.04,SSW,206,5.0,9.0,54,0.00,,,0.00,weatherlink.com 1.10,2013-10-27 20:49:00,
2013-10-27 17:04:00,67.3,50.0,30.04,WSW,246,5.0,11.0,55,0.00,,,0.00,weatherlink.com 1.10,2013-10-27 21:04:00,
2013-10-27 17:19:00,66.6,51.0,30.04,SW,222,4.0,11.0,57,0.00,,,0.00,weatherlink.com 1.10,2013-10-27 21:19:00,
2013-10-27 17:34:00,66.8,51.0,30.04,SW,236,4.0,9.0,57,0.00,,,0.00,weatherlink.com 1.10,2013-10-27 21:34:00,
2013-10-27 17:49:00,66.2,51.0,30.05,WSW,251,3.0,9.0,58,0.00,,,0.00,weatherlink.com 1.10,2013-10-27 21:49:00,
2013-10-27 18:04:00,65.5,51.0,30.05,SW,229,3.0,10.0,60,0.00,,,0.00,weatherlink.com 1.10,2013-10-27 22:04:00,
2013-10-27 18:19:00,64.3,51.0,30.05,SSW,211,4.0,5.0,62,0.00,,,0.00,weatherlink.com 1.10,2013-10-27 22:19:00,
2013-10-27 18:34:00,63.4,51.0,30.05,SSW,198,0.0,5.0,64,0.00,,,0.00,weatherlink.com 1.10,2013-10-27 22:34:00,
2013-10-27 18:49:00,62.8,51.0,30.05,SSW,194,0.0,2.0,65,0.00,,,0.00,weatherlink.com 1.10,2013-10-27 22:49:00,
2013-10-27 19:04:00,62.2,51.0,30.06,SSW,194,0.0,2.0,66,0.00,,,0.00,weatherlink.com 1.10,2013-10-27 23:04:00,
2013-10-27 19:19:00,61.7,51.0,30.06,SW,216,0.0,3.0,68,0.00,,,0.00,weatherlink.com 1.10,2013-10-27 23:19:00,
2013-10-27 19:34:00,61.7,51.0,30.06,SW,216,0.0,1.0,68,0.00,,,0.00,weatherlink.com 1.10,2013-10-27 23:34:00,
2013-10-27 19:50:00,61.3,51.0,30.07,SW,216,0.0,1.0,70,0.00,,,0.00,weatherlink.com 1.10,2013-10-27 23:50:00,
2013-10-27 20:05:00,60.1,51.0,30.07,SW,216,0.0,1.0,73,0.00,,,0.00,weatherlink.com 1.10,2013-10-28 00:05:00,
2013-10-27 20:20:00,59.1,52.0,30.07,SSW,196,0.0,1.0,76,0.00,,,0.00,weatherlink.com 1.10,2013-10-28 00:20:00,
2013-10-27 20:35:00,58.4,51.0,30.08,South,183,3.0,3.0,77,0.00,,,0.00,weatherlink.com 1.10,2013-10-28 00:35:00,
2013-10-27 20:50:00,57.3,51.0,30.08,South,183,1.0,2.0,80,0.00,,,0.00,weatherlink.com 1.10,2013-10-28 00:50:00,
2013-10-27 21:05:00,56.9,51.0,30.08,South,183,0.0,2.0,80,0.00,,,0.00,weatherlink.com 1.10,2013-10-28 01:05:00,
2013-10-27 21:20:00,56.5,51.0,30.08,South,183,0.0,0.0,81,0.00,,,0.00,weatherlink.com 1.10,2013-10-28 01:20:00,
2013-10-27 21:35:00,54.7,50.0,30.08,SE,124,0.0,2.0,85,0.00,,,0.00,weatherlink.com 1.10,2013-10-28 01:35:00,
2013-10-27 21:50:00,54.2,50.0,30.09,NE,56,0.0,5.0,86,0.00,,,0.00,weatherlink.com 1.10,2013-10-28 01:50:00,
2013-10-27 22:05:00,54.2,50.0,30.09,ENE,70,0.0,1.0,86,0.00,,,0.00,weatherlink.com 1.10,2013-10-28 02:05:00,
2013-10-27 22:20:00,53.5,50.0,30.10,ENE,70,0.0,2.0,88,0.00,,,0.00,weatherlink.com 1.10,2013-10-28 02:20:00,
2013-10-27 22:35:00,53.1,49.0,30.10,ENE,70,0.0,0.0,86,0.00,,,0.00,weatherlink.com 1.10,2013-10-28 02:35:00,
2013-10-27 22:50:00,52.3,49.0,30.10,ENE,70,0.0,0.0,87,0.00,,,0.00,weatherlink.com 1.10,2013-10-28 02:50:00,
2013-10-27 23:05:00,51.7,49.0,30.10,ENE,70,0.0,0.0,90,0.00,,,0.00,weatherlink.com 1.10,2013-10-28 03:05:00,
2013-10-27 23:20:00,51.7,49.0,30.10,ENE,70,0.0,0.0,89,0.00,,,0.00,weatherlink.com 1.10,2013-10-28 03:20:00,
2013-10-27 23:35:00,51.2,49.0,30.10,ENE,70,0.0,3.0,92,0.00,,,0.00,weatherlink.com 1.10,2013-10-28 03:35:00,
2013-10-27 23:50:00,50.2,48.0,30.11,WSW,257,2.0,6.0,92,0.00,,,0.00,weatherlink.com 1.10,2013-10-28 03:50:00,